Location: Newark
(52.3500°N, 175.9667°E)
Time: 02:41:37
(UTC+00:00)

S-56A Canister/Altair - Pass Details

Date: 04 December 2022
Orbit: 639 x 2493 km, 38.9° (Epoch: 06 February)

Event Time Altitude Azimuth Distance (km) Brightness Sun altitude
Rises 19:05:46 0° 231° (SW) 3,679 10.8 -9.0°
Reaches altitude 10° 19:09:36 10° 212° (SSW) 2,446 10.1 -8.4°
Maximum altitude 19:12:56 16° 174° (S) 1,843 9.9 -8.0°
Drops below altitude 10° 19:15:53 10° 135° (SE) 2,110 11.2 -7.6°
Sets 19:18:50 0° 113° (ESE) 2,946 13.1 -7.2°
